Weather reports worldwide

Advertisment
Aboyne, United Kingdom (3080): temperature & dewpoint: 13.06.2018 00:00:00 - 19.06.2018 00:00:00 (BST)Aboyne, United Kingdom (3080): temperature -20cm & temperature -100cm: 13.06.2018 00:00:00 - 19.06.2018 00:00:00 (BST)Aboyne, United Kingdom (3080): wind speed & gusts: 13.06.2018 00:00:00 - 19.06.2018 00:00:00 (BST)Aboyne, United Kingdom (3080): wind direction: 13.06.2018 00:00:00 - 19.06.2018 00:00:00 (BST)Aboyne, United Kingdom (3080): reduced air pressure: 13.06.2018 00:00:00 - 19.06.2018 00:00:00 (BST)Aboyne, United Kingdom (3080): visibility: 13.06.2018 00:00:00 - 19.06.2018 00:00:00 (BST)Aboyne, United Kingdom (3080): precipitation: 13.06.2018 00:00:00 - 19.06.2018 00:00:00 (BST)
Date & Time tt [°C] td [°C] tt -20cm [°C] tt -100cm [°C] ff [km/h] ff [kn] fx [km/h] fx [kn] dd ppp [hPa] vv [km] rr [mm]
19.06.2018 00:00:00 - - - - - - - - - - - -
18.06.2018 23:00:00 - - - - - - - - - - - -
18.06.2018 22:00:00 - - - - - - - - - - - -
18.06.2018 21:00:00 - - - - - - - - - - - -
18.06.2018 20:00:00 - - - - - - - - - - - -
18.06.2018 19:00:00 - - - - - - - - - - - -
18.06.2018 18:00:00 - - - - - - - - - - - -
18.06.2018 17:00:00 - - - - - - - - - - - -
18.06.2018 16:00:00 - - - - - - - - - - - -
18.06.2018 15:00:00 - - - - - - - - - - - -
18.06.2018 14:00:00 - - - - - - - - - - - -
18.06.2018 13:00:00 - - - - - - - - - - - -
18.06.2018 12:00:00 - - - - - - - - - - - -
18.06.2018 11:00:00 15,7 4,9 - - 31 17 52 28 WSW 1007,9 22 0,0
18.06.2018 10:00:00 15,2 5,7 14,0 12,7 28 15 46 25 W 1008,0 28 0,0
18.06.2018 09:00:00 14,2 5,7 - - 28 15 - - WSW 1007,6 24 0,0
18.06.2018 08:00:00 13,0 6,2 - - 18 10 - - W 1007,4 30 0,0
18.06.2018 07:00:00 13,1 6,9 - - 15 8 - - W 1007,0 30 0,0
18.06.2018 06:00:00 11,5 5,9 - - 16 9 - - WSW 1006,7 40 0,0
18.06.2018 05:00:00 11,7 5,9 - - 13 7 - - W 1006,3 45 0,0
18.06.2018 04:00:00 12,2 5,9 - - 21 11 - - W 1006,0 40 0,0
18.06.2018 03:00:00 13,2 7,0 - - 22 12 - - WSW 1005,5 50 0,0
18.06.2018 02:00:00 13,9 8,1 - - 15 8 - - W 1005,2 50 0,0
18.06.2018 01:00:00 13,6 10,2 - - 9 5 - - W 1005,2 50 0,0
18.06.2018 00:00:00 14,3 10,4 - - 15 8 - - SW 1005,1 50 0,0
17.06.2018 23:00:00 14,1 10,7 - - 11 6 - - SW 1005,5 50 0,0
17.06.2018 22:00:00 14,0 10,4 - - 21 11 - - SW 1005,4 50 0,0
17.06.2018 21:00:00 14,0 10,1 - - 22 12 - - SW 1005,9 45 0,0
17.06.2018 20:00:00 13,8 10,2 - - 8 4 - - WSW 1006,0 45 0,0
17.06.2018 19:00:00 14,7 9,3 - - 16 9 - - SW 1006,5 45 0,0
17.06.2018 18:00:00 15,0 8,8 - - 11 6 - - SSW 1006,7 40 0,0
17.06.2018 17:00:00 17,0 7,4 - - 15 8 - - SW 1006,6 45 0,0
17.06.2018 16:00:00 17,5 8,0 - - 11 6 - - SSW 1006,5 30 0,0
17.06.2018 15:00:00 17,0 7,9 - - 11 6 - - W 1007,0 45 0,0
17.06.2018 14:00:00 16,4 8,3 - - 18 10 - - W 1007,2 40 0,0
17.06.2018 13:00:00 18,1 8,2 - - 18 10 - - W 1006,9 50 0,0
17.06.2018 12:00:00 17,1 9,1 - - 18 10 - - W 1007,2 35 0,0
17.06.2018 11:00:00 16,0 8,6 - - 11 6 - - WSW 1007,1 50 0,0
17.06.2018 10:00:00 14,1 7,6 13,7 12,9 4 2 - - W 1007,4 35 0,0
17.06.2018 09:00:00 13,0 8,4 - - 4 2 - - WNW 1007,5 50 0,0
17.06.2018 08:00:00 11,6 7,6 - - 9 5 - - W 1007,6 45 0,0
17.06.2018 07:00:00 9,8 8,0 - - 11 6 - - W 1007,7 45 0,0
17.06.2018 06:00:00 7,3 7,3 - - 9 5 - - W 1007,6 40 0,0
17.06.2018 05:00:00 6,2 6,2 - - 9 5 - - W 1007,6 35 0,0
17.06.2018 04:00:00 5,3 5,3 - - 4 2 - - WNW 1007,5 20 0,0
17.06.2018 03:00:00 6,7 6,7 - - 8 4 - - W 1007,2 26 0,0
17.06.2018 02:00:00 8,7 8,7 - - 2 1 - - W 1006,9 30 0,0
17.06.2018 01:00:00 9,1 9,1 - - 8 4 - - W 1006,9 30 0,0
17.06.2018 00:00:00 8,0 8,0 - - 8 4 - - NW 1006,5 15 0,0
16.06.2018 23:00:00 8,3 8,3 - - 5 3 - - WNW 1006,5 15 0,0
16.06.2018 22:00:00 9,1 8,8 - - 4 2 - - NNW 1006,3 30 0,0
16.06.2018 21:00:00 10,3 9,6 - - 4 2 - - ENE 1005,9 40 0,0
16.06.2018 20:00:00 10,9 9,6 - - 8 4 - - E 1005,8 45 0,0
16.06.2018 19:00:00 10,8 10,0 - - 8 4 - - E 1006,1 45 0,0
16.06.2018 18:00:00 10,7 9,9 - - 16 9 - - E 1006,0 50 0,2
16.06.2018 17:00:00 10,8 9,9 - - 16 9 - - ESE 1006,3 16 0,8
16.06.2018 16:00:00 11,0 9,7 - - 11 6 - - ESE 1006,7 12 0,8
16.06.2018 15:00:00 12,0 9,3 - - 13 7 - - ESE 1006,7 40 0,0
16.06.2018 14:00:00 11,9 9,2 - - 13 7 - - SE 1007,0 30 0,0
16.06.2018 13:00:00 12,2 9,8 - - 16 9 - - SE 1007,5 21 0,0
16.06.2018 12:00:00 12,6 9,5 - - 16 9 - - SE 1007,7 35 0,0
16.06.2018 11:00:00 12,7 8,6 - - 21 11 - - SE 1008,0 35 0,0
16.06.2018 10:00:00 13,7 8,6 14,0 12,9 16 9 - - SSE 1008,2 40 0,0
16.06.2018 09:00:00 12,8 9,0 - - 16 9 - - SSE 1008,8 35 0,0
16.06.2018 08:00:00 10,6 8,5 - - 9 5 - - ESE 1009,2 40 0,0
16.06.2018 07:00:00 8,8 8,1 - - 9 5 - - E 1009,5 35 0,0
16.06.2018 06:00:00 7,1 7,1 - - 8 4 - - E 1009,9 45 0,0
16.06.2018 05:00:00 4,7 4,5 - - 4 2 - - E 1010,1 50 0,0
16.06.2018 04:00:00 5,9 5,9 - - 8 4 - - E 1010,4 45 0,0
16.06.2018 03:00:00 6,0 5,6 - - 2 1 - - SW 1010,9 50 0,0
16.06.2018 02:00:00 6,4 5,7 - - 4 2 - - S 1011,0 50 0,0
16.06.2018 01:00:00 7,4 6,1 - - 2 1 - - NNW 1011,2 50 0,0
16.06.2018 00:00:00 6,8 5,0 - - 2 1 - - WSW 1011,2 45 0,0
15.06.2018 23:00:00 9,9 5,7 - - 8 4 - - NW 1010,6 50 0,0
15.06.2018 22:00:00 12,0 6,4 - - 13 7 - - SW 1010,5 50 0,0
15.06.2018 21:00:00 13,4 6,9 - - 16 9 - - SW 1010,2 45 0,0
15.06.2018 20:00:00 14,3 6,2 - - 21 11 - - WSW 1009,7 50 0,0
15.06.2018 19:00:00 14,3 6,4 - - 18 10 - - W 1009,6 50 0,0
15.06.2018 18:00:00 14,6 6,6 - - 22 12 - - WSW 1009,5 50 0,0
15.06.2018 17:00:00 15,6 7,5 - - 13 7 - - WNW 1009,4 50 0,0
15.06.2018 16:00:00 16,3 6,0 - - 26 14 - - WSW 1009,1 45 0,0
15.06.2018 15:00:00 16,6 6,8 - - 22 12 - - W 1009,0 40 0,0
15.06.2018 14:00:00 16,5 5,3 - - 24 13 - - WSW 1008,7 50 0,0
15.06.2018 13:00:00 14,7 5,5 - - 16 9 - - WSW 1009,0 50 0,0
15.06.2018 12:00:00 14,2 6,3 - - 21 11 - - WSW 1009,0 45 0,0
15.06.2018 11:00:00 14,0 5,8 - - 18 10 - - W 1008,4 50 0,0
15.06.2018 10:00:00 13,8 6,0 14,2 13,0 16 9 - - WSW 1008,4 50 0,0
15.06.2018 09:00:00 12,9 5,6 - - 22 12 - - WSW 1008,4 40 0,0
15.06.2018 08:00:00 12,1 6,1 - - 22 12 - - WSW 1007,9 40 0,0
15.06.2018 07:00:00 9,9 6,2 - - 4 2 - - SW 1007,6 50 0,0
15.06.2018 06:00:00 10,9 6,6 - - 8 4 - - WSW 1007,2 50 0,0
15.06.2018 05:00:00 9,9 6,0 - - 9 5 - - SSW 1007,0 50 0,0
15.06.2018 04:00:00 9,8 5,7 - - 4 2 - - WSW 1006,9 50 0,0
15.06.2018 03:00:00 10,2 5,6 - - 4 2 - - S 1006,7 50 0,0
15.06.2018 02:00:00 11,0 5,1 - - 16 9 - - SW 1006,9 50 0,0
15.06.2018 01:00:00 6,4 4,0 - - 9 5 - - ESE 1006,4 50 0,0
15.06.2018 00:00:00 9,3 4,4 - - 9 5 - - W 1006,0 50 0,0
14.06.2018 23:00:00 10,0 4,4 - - 21 11 - - W 1005,7 45 0,0
14.06.2018 22:00:00 10,4 4,8 - - 24 13 46 25 W 1005,2 45 0,0
14.06.2018 21:00:00 11,4 4,6 - - 21 11 68 37 W 1004,7 40 0,0
14.06.2018 20:00:00 13,0 3,5 - - 35 19 61 33 W 1003,2 45 0,0
14.06.2018 19:00:00 13,5 4,5 - - 39 21 74 40 W 1002,0 30 0,0
14.06.2018 18:00:00 14,3 3,8 - - 41 22 70 38 W 1000,8 45 0,0
14.06.2018 17:00:00 13,9 5,4 - - 35 19 68 37 W 999,9 45 0,0
14.06.2018 16:00:00 14,3 5,7 - - 31 17 65 35 WSW 998,0 30 0,0
14.06.2018 15:00:00 14,7 5,4 - - 37 20 70 38 W 996,1 35 0,0
14.06.2018 14:00:00 14,6 7,9 - - 35 19 61 33 W 994,3 23 0,0
14.06.2018 13:00:00 15,2 7,4 - - 41 22 78 42 W 991,7 35 0,0
14.06.2018 12:00:00 15,3 7,1 - - 42 23 67 36 W 988,0 40 0,0
14.06.2018 11:00:00 17,0 10,8 - - 29 16 59 32 WSW 984,2 40 0,0
14.06.2018 10:00:00 16,3 10,8 14,7 13,0 35 19 70 38 SW 982,8 40 0,0
14.06.2018 09:00:00 16,2 11,1 - - 37 20 63 34 WSW 983,4 25 0,0
14.06.2018 08:00:00 16,4 10,8 - - 24 13 50 27 WSW 983,9 40 0,0
14.06.2018 07:00:00 15,9 12,3 - - 16 9 - - SW 984,6 18 0,0
14.06.2018 06:00:00 15,4 12,7 - - 22 12 - - SSW 985,4 30 0,0
14.06.2018 05:00:00 14,5 12,9 - - 11 6 - - SW 987,5 8 0,2
14.06.2018 04:00:00 14,2 12,9 - - 5 3 - - SE 989,1 9 0,0
14.06.2018 03:00:00 14,0 12,2 - - 15 8 - - S 990,3 10 0,0
14.06.2018 02:00:00 13,8 11,8 - - 15 8 46 25 SSW 991,6 11 0,0
14.06.2018 01:00:00 13,7 11,6 - - 15 8 - - S 993,2 19 0,0
14.06.2018 00:00:00 13,3 11,6 - - 16 9 - - SSE 996,1 17 0,0
13.06.2018 23:00:00 13,0 11,5 - - 15 8 - - SSE 998,1 8 0,0
13.06.2018 22:00:00 13,5 11,0 - - 9 5 - - S 1000,0 15 0,0
13.06.2018 21:00:00 14,0 10,6 - - 15 8 - - SSW 1001,6 45 0,0
13.06.2018 20:00:00 14,0 10,7 - - 16 9 - - WSW 1002,8 40 0,0
13.06.2018 19:00:00 13,2 11,2 - - 5 3 - - N 1004,0 26 0,2
13.06.2018 18:00:00 13,2 11,0 - - 8 4 - - SSE 1005,7 17 0,4
13.06.2018 17:00:00 13,9 10,1 - - 5 3 - - W 1007,0 20 0,2
13.06.2018 16:00:00 14,3 9,4 - - 18 10 - - SW 1007,9 22 0,0
13.06.2018 15:00:00 15,8 7,3 - - 15 8 - - SW 1008,4 40 0,0
13.06.2018 14:00:00 16,8 7,0 - - 21 11 - - WSW 1009,1 45 0,0
13.06.2018 13:00:00 18,1 8,5 - - 22 12 - - WSW 1009,5 30 0,0
13.06.2018 12:00:00 15,6 8,3 - - 13 7 - - S 1011,0 50 0,0
13.06.2018 11:00:00 14,2 10,1 - - 13 7 - - SSE 1011,8 40 0,0
13.06.2018 10:00:00 12,6 8,3 14,7 13,0 9 5 - - S 1013,2 35 0,0
13.06.2018 09:00:00 12,0 8,5 - - 9 5 - - S 1014,1 45 0,0
13.06.2018 08:00:00 11,5 6,8 - - 16 9 - - S 1014,6 50 0,0
13.06.2018 07:00:00 10,7 7,4 - - 5 3 - - S 1015,3 30 0,0
13.06.2018 06:00:00 10,1 7,3 - - 5 3 - - WSW 1016,1 40 0,0
13.06.2018 05:00:00 9,8 8,5 - - 2 1 - - SSW 1016,4 45 0,0
13.06.2018 04:00:00 10,0 8,1 - - 11 6 - - S 1016,9 35 0,0
13.06.2018 03:00:00 9,8 9,0 - - 4 2 - - E 1017,8 9 0,0
13.06.2018 02:00:00 10,1 9,1 - - 5 3 - - E 1018,1 40 0,0
13.06.2018 01:00:00 10,3 9,2 - - 5 3 - - E 1018,4 35 0,0
13.06.2018 00:00:00 10,6 9,3 - - 5 3 - - ENE 1018,7 40 0,0

tt = temperature
td = dewpoint
tt -20cm = temperature -20cm
tt -100cm = temperature -100cm
ff = wind speed
fx = gusts
dd = wind direction
ppp = reduced air pressure
vv = visibility
rr = precipitation

Next stations